Find Starlink 4634

NORAD ID: 53967 Int'l Des: 2022-125 Owner: SPXS Country: US Constellation: starlink operational
LEOCIRCULAR

Live-Position

3D-Globus wird geladen...

Über Starlink 4634

Beschreibung wird geladen...

Nächste Überflüge

Passes for default location (London). Set your location on the main map for personalized predictions.

Höhenverlauf

Loading altitude history...

Zweizeiliger Elementsatz

1 53967U 22125D 26129.90902250 .00002915 00000-0 20108-3 0 9990
2 53967 53.2176 309.3317 0001165 82.3497 277.7628 15.08855434198569
Epoch: 9. Mai 2026 • Age: 18 hours

Aktueller Status

Höhe 542.5 km
Geschwindigkeit 7.60 km/s
Subsatellitenpunkt 39.65°N, 117.43°W
Startdatum 5. Okt. 2022
Alter 3.5 years
Typ internet

Technische Details

Klassifizierung Payload
Masse 305.00 kg
Trockenmasse 290.00 kg
Gesamtmasse 305.00 kg
Länge 0.20 m
Durchmesser 2.80 m
Spannweite 9.00 m
Form Box + pan
Hersteller SPXS
Bus-Typ Starlink
Phasenstatus In Orbit
Besitzer/Staat SPXS/US

Most Searched